IUS R/B(2), 25672

Orbit data source: Space-Track

IUS R/B(2), 25672 is space debris in HEO originally from a launch on Fri, 09 Apr 1999 UTC launched from the Air Force Eastern Test Range (AFETR). Debris objects in space refer to the collection of defunct objects orbiting the Earth. Examples of debris include non-operational satellites, rocket bodies, and fragments generated from explosions, collisions, or faulty payload assembly.

Loading next visibility...
Identifier
25672, 1999-017D
Orbit
HEO
Country
Flag of USUS
Related business
Manufacturer
BOKT/PWCSD
Mission
Spacecraft
Bus & Motor
ORBUS 6, Unknown motor
Mass
1,079 kg wet, 1,079 kg dry
Launch date (UTC)
1999-04-09 (27 years ago)
Launch vehicle
Unknown
Launch site
Air Force Eastern Test Range (AFETR)
Object type
Payload
Rocket body
Debris
Shape & HBR
Cyl, 1.4 m
Radar Cross Section
8.086 m², Large (>1 m²)

Expand to show TLE details & history
Last TLE update: 2 days ago

TLE from 2 days ago
0 IUS R/B(2)
1 25672U 99017D   26171.08827893  .00004592  00000-0  18050-2 0  9996
2 25672  28.1333 135.2872 7129148 308.4760   6.7875  2.46114748 61278
Epoch: 2026-06-20T02:07Z
TLE epoch observation values (Epoch: 2026-06-20T02:07:07.299Z)
Latitude
-0.00019°
Longitude
-164.85279°
Altitude
1,501.79 km
Speed
9.163 km/s
True Right ascension
09h 00m 56s
True Declination
0° 00' 01"
Sunlit
Object was in daylight at epoch
Visualization orbit readout
Latitude
Unknown
Longitude
Unknown
Altitude
Unknown
Speed
Unknown
Apparent Right ascension
Unknown
Apparent Declination
Unknown
Sunlit
N/A
Visualization observer readout
Local Sidereal Time
23:08:24
Azimuth
Unknown
Elevation
Unknown
Doppler factor
Unknown
Orbital elements
Apogee altitude
33,321.051 km
Perigee altitude
275.463 km
Semi-major axis
23,176.394 km
Eccentricity
0.71291
Inclination
28.1333°
RAAN
135.2872°
Arg. of periapsis
308.476°
True anomaly
51.33864°
Mean anomaly
6.7875°
Eccentric anomaly
22.26224°
Mean motion
0.61514 °/min
Orbital period
585.23 mins
BSTAR
0.001805
Loading maneuver chart data...
Computing Atmospheric mass density...
Loading historical data...
Loading historical data...
Loading historical data...
Loading historical data...
Loading historical data...
Loading historical data...
Loading historical data...

Documentation

Showing up to 5 results
|